| time (UTC) | temp C | wind direction | speed KPH | gust KPH | rain 1hr cm | rain 24hr cm | rain mn cm | humidity % | barometer mb |
| 20260906192134 | 15 | 95 | 6.4 | 6.4 | 0.00 | 0.00 | 0.00 | 62 | 1022.4 |
| 20260906190634 | 15 | 104 | 6.4 | 9.7 | 0.00 | 0.00 | 0.00 | 61 | 1022.6 |
| 20260906185133 | 16 | 107 | 6.4 | 9.7 | 0.00 | 0.00 | 0.00 | 62 | 1022.5 |
| 20260906183633 | 16 | 110 | 3.2 | 6.4 | 0.00 | 0.00 | 0.00 | 63 | 1022.6 |
| 20260906182133 | 17 | 105 | 3.2 | 6.4 | 0.00 | 0.00 | 0.00 | 59 | 1022.9 |
| 20260906180633 | 20 | 98 | 3.2 | 9.7 | 0.00 | 0.00 | 0.00 | 51 | 1023.1 |
| 20260906175133 | 20 | 112 | 3.2 | 9.7 | 0.00 | 0.00 | 0.00 | 48 | 1023.1 |
| 20260906173633 | 20 | 103 | 3.2 | 6.4 | 0.00 | 0.00 | 0.00 | 49 | 1023.1 |
| 20260906172133 | 20 | 125 | 6.4 | 9.7 | 0.00 | 0.00 | 0.00 | 49 | 1023.2 |
| 20260906170632 | 20 | 125 | 6.4 | 9.7 | 0.00 | 0.00 | 0.00 | 49 | 1023.2 |
| 20260906165132 | 20 | 133 | 6.4 | 9.7 | 0.00 | 0.00 | 0.00 | 48 | 1023.3 |
| 20260906163633 | 20 | 138 | 6.4 | 12.9 | 0.00 | 0.00 | 0.00 | 43 | 1023.4 |
| 20260906162132 | 20 | 130 | 6.4 | 12.9 | 0.00 | 0.00 | 0.00 | 45 | 1023.5 |
| 20260906160631 | 20 | 136 | 6.4 | 12.9 | 0.00 | 0.00 | 0.00 | 47 | 1023.6 |
| 20260906155131 | 20 | 154 | 6.4 | 12.9 | 0.00 | 0.00 | 0.00 | 47 | 1023.7 |
| 20260906153630 | 20 | 146 | 9.7 | 20.9 | 0.00 | 0.00 | 0.00 | 46 | 1023.9 |
| 20260906152130 | 20 | 148 | 6.4 | 12.9 | 0.00 | 0.00 | 0.00 | 46 | 1024.0 |
| 20260906150630 | 21 | 135 | 9.7 | 17.7 | 0.00 | 0.00 | 0.00 | 46 | 1024.3 |
| 20260906145129 | 20 | 121 | 9.7 | 17.7 | 0.00 | 0.00 | 0.00 | 45 | 1024.3 |
| 20260906143629 | 21 | 136 | 9.7 | 17.7 | 0.00 | 0.00 | 0.00 | 46 | 1024.4 |
| 20260906142128 | 20 | 171 | 9.7 | 17.7 | 0.00 | 0.00 | 0.00 | 45 | 1024.6 |
| 20260906140629 | 20 | 183 | 9.7 | 17.7 | 0.00 | 0.00 | 0.00 | 42 | 1024.9 |
| 20260906135128 | 20 | 176 | 6.4 | 12.9 | 0.00 | 0.00 | 0.00 | 48 | 1024.9 |
| 20260906133628 | 20 | 162 | 9.7 | 17.7 | 0.00 | 0.00 | 0.00 | 49 | 1025.2 |
| 20260906132127 | 20 | 161 | 6.4 | 20.9 | 0.00 | 0.00 | 0.00 | 47 | 1025.2 |
| 20260906130627 | 20 | 156 | 9.7 | 17.7 | 0.00 | 0.00 | 0.00 | 50 | 1025.4 |
| 20260906125127 | 20 | 160 | 9.7 | 17.7 | 0.00 | 0.00 | 0.00 | 51 | 1025.4 |
| 20260906123628 | 20 | 197 | 6.4 | 24.1 | 0.00 | 0.00 | 0.00 | 50 | 1025.6 |
| 20260906122127 | 20 | 183 | 9.7 | 24.1 | 0.00 | 0.00 | 0.00 | 49 | 1025.8 |
| 20260906120627 | 20 | 161 | 9.7 | 20.9 | 0.00 | 0.00 | 0.00 | 49 | 1025.9 |
| 20260906115126 | 20 | 166 | 9.7 | 17.7 | 0.00 | 0.00 | 0.00 | 48 | 1026.0 |
| 20260906113627 | 20 | 154 | 9.7 | 20.9 | 0.00 | 0.00 | 0.00 | 50 | 1026.3 |
| 20260906112126 | 20 | 146 | 9.7 | 17.7 | 0.00 | 0.00 | 0.00 | 48 | 1026.4 |
| 20260906110625 | 18 | 176 | 6.4 | 12.9 | 0.00 | 0.00 | 0.00 | 53 | 1026.5 |
| 20260906105125 | 18 | 178 | 3.2 | 12.9 | 0.00 | 0.00 | 0.00 | 52 | 1026.7 |
| 20260906103625 | 18 | 172 | 6.4 | 12.9 | 0.00 | 0.00 | 0.00 | 52 | 1026.8 |
| 20260906102124 | 18 | 257 | 3.2 | 12.9 | 0.00 | 0.00 | 0.00 | 56 | 1026.9 |
| 20260906100624 | 17 | 220 | 6.4 | 17.7 | 0.00 | 0.00 | 0.00 | 57 | 1027.0 |
| 20260906095123 | 17 | 177 | 6.4 | 17.7 | 0.00 | 0.00 | 0.00 | 60 | 1027.2 |
| 20260906093623 | 17 | 186 | 6.4 | 20.9 | 0.00 | 0.00 | 0.00 | 62 | 1027.2 |
| 20260906092122 | 17 | 186 | 6.4 | 20.9 | 0.00 | 0.00 | 0.00 | 62 | 1027.3 |
| 20260906090622 | 17 | 192 | 3.2 | 17.7 | 0.00 | 0.00 | 0.00 | 62 | 1027.4 |
| 20260906085121 | 16 | 191 | 6.4 | 17.7 | 0.00 | 0.00 | 0.00 | 63 | 1027.3 |
| 20260906083621 | 16 | 195 | 6.4 | 12.9 | 0.00 | 0.00 | 0.00 | 64 | 1027.4 |
| 20260906082120 | 15 | 182 | 6.4 | 9.7 | 0.00 | 0.00 | 0.00 | 68 | 1027.3 |
| 20260906080620 | 15 | 185 | 6.4 | 9.7 | 0.00 | 0.00 | 0.00 | 69 | 1027.2 |
| 20260906075120 | 15 | 187 | 3.2 | 9.7 | 0.00 | 0.00 | 0.00 | 72 | 1027.2 |
| 20260906073620 | 12 | 191 | 3.2 | 6.4 | 0.00 | 0.00 | 0.00 | 82 | 1027.2 |
| 20260906072120 | 12 | 189 | 3.2 | 3.2 | 0.00 | 0.00 | 0.00 | 84 | 1027.2 |
| 20260906070619 | 11 | 187 | 0.0 | 3.2 | 0.00 | 0.00 | 0.00 | 88 | 1027.1 |
| 20260906065119 | 10 | 145 | 0.0 | 3.2 | 0.00 | 0.00 | 0.00 | 92 | 1027.0 |
| 20260906063619 | 10 | 144 | 3.2 | 3.2 | 0.00 | 0.00 | 0.00 | 94 | 1026.9 |
| 20260906062118 | 8 | 155 | 3.2 | 3.2 | 0.00 | 0.00 | 0.00 | 97 | 1026.9 |
| 20260906060618 | 6 | 141 | 0.0 | 3.2 | 0.00 | 0.00 | 0.00 | 97 | 1026.8 |
| 20260906055117 | 6 | 158 | 0.0 | 3.2 | 0.00 | 0.00 | 0.00 | 96 | 1026.9 |
| 20260906053617 | 5 | 128 | 0.0 | 3.2 | 0.00 | 0.00 | 0.00 | 96 | 1026.7 |
| 20260906052117 | 5 | 134 | 0.0 | 3.2 | 0.00 | 0.00 | 0.00 | 97 | 1026.6 |
| 20260906050616 | 5 | 148 | 0.0 | 3.2 | 0.00 | 0.00 | 0.00 | 96 | 1026.7 |
| 20260906045115 | 6 | 128 | 0.0 | 0.0 | 0.00 | 0.00 | 0.00 | 98 | 1026.6 |
| 20260906043615 | 6 | 132 | 0.0 | 3.2 | 0.00 | 0.00 | 0.00 | 97 | 1026.6 |
| 20260906042114 | 7 | 140 | 3.2 | 3.2 | 0.00 | 0.00 | 0.00 | 96 | 1026.6 |
| 20260906040615 | 7 | 168 | 3.2 | 3.2 | 0.00 | 0.00 | 0.00 | 95 | 1026.6 |
| 20260906035114 | 7 | 158 | 3.2 | 3.2 | 0.00 | 0.00 | 0.00 | 95 | 1026.7 |
| 20260906033614 | 8 | 161 | 3.2 | 6.4 | 0.00 | 0.00 | 0.00 | 96 | 1026.8 |
| 20260906032113 | 7 | 175 | 3.2 | 6.4 | 0.00 | 0.00 | 0.00 | 95 | 1026.9 |
| 20260906030613 | 6 | 177 | 3.2 | 6.4 | 0.00 | 0.00 | 0.00 | 94 | 1027.0 |
| 20260906025112 | 5 | 168 | 3.2 | 3.2 | 0.00 | 0.00 | 0.00 | 94 | 1026.9 |
| 20260906023612 | 6 | 171 | 0.0 | 3.2 | 0.00 | 0.00 | 0.00 | 96 | 1026.7 |
| 20260906022111 | 6 | 157 | 0.0 | 3.2 | 0.00 | 0.00 | 0.00 | 96 | 1026.7 |
| 20260906020611 | 7 | 149 | 3.2 | 3.2 | 0.00 | 0.00 | 0.00 | 96 | 1026.5 |
| 20260906015111 | 6 | 154 | 3.2 | 3.2 | 0.00 | 0.00 | 0.00 | 93 | 1026.5 |
| 20260906013611 | 6 | 136 | 0.0 | 3.2 | 0.00 | 0.00 | 0.00 | 94 | 1026.5 |
| 20260906012110 | 8 | 171 | 0.0 | 3.2 | 0.00 | 0.00 | 0.00 | 95 | 1026.8 |
| 20260906010610 | 7 | 198 | 0.0 | 3.2 | 0.00 | 0.00 | 0.00 | 97 | 1026.7 |
| 20260906005110 | 7 | 184 | 3.2 | 6.4 | 0.00 | 0.00 | 0.00 | 96 | 1026.5 |
| 20260906003609 | 7 | 173 | 3.2 | 6.4 | 0.00 | 0.00 | 0.00 | 94 | 1026.6 |
| 20260906002109 | 7 | 168 | 3.2 | 6.4 | 0.00 | 0.00 | 0.00 | 97 | 1026.5 |
| 20260906000609 | 7 | 186 | 0.0 | 0.0 | 0.00 | 0.00 | 0.00 | 94 | 1026.4 |
| 20260905235108 | 8 | 196 | 3.2 | 3.2 | 0.00 | 0.00 | 0.00 | 93 | 1026.4 |
| 20260905233609 | 8 | 220 | 0.0 | 3.2 | 0.00 | 0.00 | 0.00 | 93 | 1026.3 |
| 20260905232108 | 8 | 220 | 0.0 | 3.2 | 0.00 | 0.00 | 0.00 | 93 | 1026.3 |
| 20260905230608 | 10 | 195 | 0.0 | 3.2 | 0.00 | 0.00 | 0.00 | 93 | 1026.2 |
| 20260905225107 | 10 | 220 | 3.2 | 3.2 | 0.00 | 0.00 | 0.00 | 93 | 1026.0 |
| 20260905223608 | 10 | 238 | 3.2 | 3.2 | 0.00 | 0.00 | 0.00 | 92 | 1025.8 |
| 20260905222107 | 10 | 258 | 3.2 | 3.2 | 0.00 | 0.00 | 0.00 | 88 | 1025.8 |
| 20260905220606 | 10 | 285 | 3.2 | 3.2 | 0.00 | 0.00 | 0.00 | 90 | 1025.7 |
| 20260905215105 | 10 | 251 | 3.2 | 3.2 | 0.00 | 0.00 | 0.00 | 89 | 1025.7 |
| 20260905213605 | 10 | 231 | 3.2 | 6.4 | 0.00 | 0.00 | 0.00 | 88 | 1025.6 |
| 20260905212104 | 10 | 267 | 6.4 | 6.4 | 0.00 | 0.00 | 0.00 | 84 | 1025.6 |
| 20260905210605 | 10 | 245 | 6.4 | 6.4 | 0.00 | 0.00 | 0.00 | 85 | 1025.5 |
| 20260905205105 | 10 | 263 | 3.2 | 6.4 | 0.00 | 0.00 | 0.00 | 84 | 1025.4 |
| 20260905203604 | 10 | 259 | 3.2 | 6.4 | 0.00 | 0.00 | 0.00 | 83 | 1025.3 |
| 20260905202105 | 11 | 265 | 3.2 | 6.4 | 0.00 | 0.00 | 0.00 | 83 | 1025.3 |
| 20260905200605 | 11 | 265 | 6.4 | 9.7 | 0.00 | 0.00 | 0.00 | 78 | 1025.2 |
| 20260905195104 | 12 | 241 | 3.2 | 6.4 | 0.00 | 0.00 | 0.00 | 79 | 1025.0 |
| 20260905193604 | 12 | 262 | 3.2 | 6.4 | 0.00 | 0.00 | 0.00 | 76 | 1024.9 |